Location: Unspecified
(0.0000°N, 0.0000°E)
Time: 13:23:01
(UTC+00:00)

Falcon 9 debris - Visible Passes

Search period start: 19 June 2019 00:00
Search period end: 29 June 2019 00:00
Orbit: 432 x 439 km, 53.0° (Epoch: 19 June)

Date Brightness Start Highest point End Pass type
(mag) Time Alt. Az. Time Alt. Az. Time Alt. Az.
22 Jun 6.6 20:26:19 10° NW 20:26:28 11° NW 20:26:28 11° NW visible
23 Jun 4.2 19:44:04 10° NNW 19:46:29 43° NNW 19:46:29 43° NNW visible
24 Jun 3.8 19:02:08 10° NNW 19:05:23 38° NE 19:06:33 28° E visible
25 Jun 5.9 19:58:21 10° W 20:00:00 13° WSW 20:00:00 13° WSW visible
26 Jun 5.1 19:15:02 10° WNW 19:17:54 24° SW 19:20:08 14° S visible
27 Jun 4.0 18:32:25 10° NW 18:35:46 47° SW 18:39:07 10° SSE visible
